Location: Palomar Mountain Lodge
(33.3110°N, 116.8495°W)
Time: 01:20:47
(UTC-07:00)

Atlas Centaur 2 - Pass Details

Date: 12 July 2018
Orbit: 459 x 1312 km, 30.4° (Epoch: 19 September)

Event Time Altitude Azimuth Distance (km) Brightness Sun altitude
Rises 20:53:32 0° 245° (WSW) 4,191 6.2 -10.6°
Reaches altitude 10° 20:56:42 10° 242° (WSW) 3,145 5.5 -11.2°
Maximum altitude 21:04:17 54° 167° (SSE) 1,260 2.8 -12.5°
Enters shadow 21:10:09 12° 92° (E) 2,478 4.2 -13.4°
